Location: Bannatyne
(13.0833°N, 59.5333°W)
Time: 05:13:10
(UTC+00:00)

Vanguard 3 - Pass Details

Date: 29 January 2020
Orbit: 508 x 3263 km, 33.3° (Epoch: 19 February)

Event Time Altitude Azimuth Distance (km) Brightness Sun altitude
Rises 19:17:14 0° 254° (WSW) 5,745 12.4 34.6°
Reaches altitude 10° 19:20:36 10° 258° (WSW) 5,045 12.4 33.9°
Maximum altitude 19:36:32 60° 335° (NNW) 3,430 10.7 30.6°
Drops below altitude 10° 19:56:18 10° 52° (NE) 6,052 11.1 26.4°
Sets 20:00:52 0° 57° (ENE) 6,896 11.3 25.4°
